Find Kosmos-2150

NORAD ID: 21418 Int'l Des: 1991-041 Owner: UNKSR Country: SU operational
LEOCIRCULAR

現在のビュー

3D地球を読み込み中...

Kosmos-2150について

説明を読み込み中...

次回通過

Passes for default location (London). Set your location on the main map for personalized predictions.

高度履歴

Loading altitude history...

軌道要素

1 21418U 91041A 26146.26172990 .00000124 00000-0 55229-4 0 9990
2 21418 74.0343 152.4317 0018012 304.2125 55.7319 14.32641425825840
Epoch: May 26, 2026 • Age: 6 hours

現在のステータス

高度 798.5 km
速度 7.46 km/s
衛星直下点 -73.80°S, 0.73°E
打ち上げ日 Jun 11, 1991
運用期間 34.9 years
タイプ other

技術仕様

分類 Payload
質量 800.00 kg
乾燥質量 800.00 kg
総質量 800.00 kg
長さ 3.00 m
直径 2.00 m
スパン 3.00 m
形状 Cyl
製造者 NPOPM
バスタイプ Strela-2M
フェーズステータス In Orbit
所有者/国 UNKSR/SU

Most Searched